Weather History for Laconia, NH

Change the Weather History Date:

Saturday, July 27, 2013

  Actual Average Record
Temperature  
Mean Temperature 70 °F -  
Max Temperature 80 °F 82 °F 93 °F (1989)
Min Temperature 60 °F 62 °F 44 °F (2001)
Cooling Degree Days 5    
Growing Degree Days 20 (Base 50)    
Moisture  
Dew Point 56 °F    
Average Humidity 63    
Maximum Humidity 83    
Minimum Humidity 37    
Precipitation  
Precipitation 0.00 in - - ()
Sea Level Pressure  
Sea Level Pressure 30.00 in    
Wind  
Wind Speed 6 mph (SW)    
Max Wind Speed 10 mph    
Max Gust Speed 16 mph    
Visibility 10 miles    
Events      
Averages and records for this station are not official NWS values.
T = Trace of Precipitation, MM = Missing Value Source: NWS Daily Summary

Daily Weather History Graph

Daily Weather History Graph

Search for Another Location

Airport:

Trip Planner

Search our weather history database for the weather conditions in past years. The results will help you decide how hot, cold, wet, or windy it might be!

Date:

Astronomy

Jul. 27, 2013 Rise Set
Actual Time 5:29 AM EDT 8:13 PM EDT
Civil Twilight 4:56 AM EDT 8:46 PM EDT
Nautical Twilight 4:14 AM EDT 9:28 PM EDT
Astronomical Twilight 3:26 AM EDT 10:16 PM EDT
Moon 10:46 PM EDT (7/27) 11:19 AM EDT (7/27)
Length of Visible Light 15h 50m
Length of Day
14h 43m
Waning Gibbous, 71% of the Moon is Illuminated
Jul 27
Waning Gibbous
Jul 29
Last Quarter
Aug 6
New
Aug 14
First Quarter
Aug 20
Full

Hourly Weather History & Observations

Time (EDT) Temp. Heat Index Dew Point Humidity Pressure Visibility Wind Dir Wind Speed Gust Speed Precip Events Conditions
12:15 AM 64.4 °F - 57.2 °F 77% 29.98 in 10.0 mi WSW 9.2 mph - N/A   Mostly Cloudy
12:35 AM 64.4 °F - 57.2 °F 77% 29.98 in 10.0 mi South 5.8 mph - N/A   Mostly Cloudy
12:55 AM 64.4 °F - 55.4 °F 73% 29.98 in 10.0 mi South 4.6 mph - N/A   Partly Cloudy
1:15 AM 64.4 °F - 55.4 °F 73% 29.97 in 10.0 mi SW 5.8 mph - N/A   Clear
1:35 AM 62.6 °F - 55.4 °F 77% 29.97 in 10.0 mi WSW 4.6 mph - N/A   Clear
1:55 AM 62.6 °F - 55.4 °F 77% 29.97 in 10.0 mi WSW 4.6 mph - N/A   Clear
2:15 AM 62.6 °F - 55.4 °F 77% 29.97 in 10.0 mi SSW 4.6 mph - N/A   Clear
2:35 AM 62.6 °F - 57.2 °F 82% 29.97 in 10.0 mi SSW 4.6 mph - N/A   Clear
2:55 AM 62.6 °F - 55.4 °F 77% 29.97 in 10.0 mi SW 4.6 mph - N/A   Clear
3:15 AM 62.6 °F - 55.4 °F 77% 29.97 in 10.0 mi WSW 3.5 mph - N/A   Clear
3:35 AM 62.6 °F - 57.2 °F 82% 29.98 in 10.0 mi WSW 4.6 mph - N/A   Clear
3:55 AM 62.6 °F - 57.2 °F 82% 29.98 in 10.0 mi SW 8.1 mph - N/A   Clear
4:15 AM 62.6 °F - 57.2 °F 82% 29.98 in 10.0 mi SW 5.8 mph - N/A   Clear
4:35 AM 60.8 °F - 55.4 °F 82% 29.98 in 10.0 mi SSW 4.6 mph - N/A   Clear
4:55 AM 60.8 °F - 55.4 °F 82% 29.98 in 10.0 mi WSW 3.5 mph - N/A   Clear
5:15 AM 60.8 °F - 55.4 °F 82% 29.99 in 10.0 mi SSW 4.6 mph - N/A   Clear
5:35 AM 60.8 °F - 55.4 °F 82% 30.00 in 10.0 mi WSW 3.5 mph - N/A   Clear
5:55 AM 60.8 °F - 55.4 °F 82% 30.00 in 10.0 mi SSW 4.6 mph - N/A   Clear
6:15 AM 60.8 °F - 55.4 °F 82% 30.01 in 10.0 mi SW 4.6 mph - N/A   Clear
6:35 AM 62.6 °F - 55.4 °F 77% 30.01 in 10.0 mi SW 6.9 mph - N/A   Clear
6:55 AM 62.6 °F - 57.2 °F 82% 30.02 in 10.0 mi SW 5.8 mph - N/A   Clear
7:15 AM 64.4 °F - 57.2 °F 77% 30.03 in 10.0 mi SSW 8.1 mph - N/A   Clear
7:35 AM 64.4 °F - 57.2 °F 77% 30.03 in 10.0 mi SSW 9.2 mph - N/A   Clear
7:55 AM 66.2 °F - 57.2 °F 73% 30.03 in 10.0 mi SW 5.8 mph - N/A   Clear
8:15 AM 66.2 °F - 57.2 °F 73% 30.03 in 10.0 mi SW 5.8 mph - N/A   Clear
8:35 AM 66.2 °F - 57.2 °F 73% 30.03 in 10.0 mi SW 9.2 mph - N/A   Clear
8:55 AM 69.8 °F - 59.0 °F 68% 30.03 in 10.0 mi SW 9.2 mph - N/A   Clear
9:15 AM 69.8 °F - 59.0 °F 68% 30.02 in 10.0 mi SW 6.9 mph - N/A   Clear
9:35 AM 71.6 °F - 59.0 °F 64% 30.02 in 10.0 mi SW 6.9 mph - N/A   Clear
9:55 AM 71.6 °F - 60.8 °F 69% 30.03 in 10.0 mi WSW 9.2 mph - N/A   Clear
10:15 AM 73.4 °F - 57.2 °F 57% 30.03 in 10.0 mi West 9.2 mph - N/A   Clear
10:35 AM 73.4 °F - 59.0 °F 61% 30.03 in 10.0 mi SW 9.2 mph - N/A   Clear
10:55 AM 73.4 °F - 57.2 °F 57% 30.03 in 10.0 mi WSW 9.2 mph - N/A   Clear
11:15 AM 75.2 °F - 57.2 °F 53% 30.03 in 10.0 mi WSW 5.8 mph - N/A   Clear
11:35 AM 75.2 °F - 51.8 °F 44% 30.03 in 10.0 mi WSW 10.4 mph - N/A   Clear
11:55 AM 77.0 °F - 53.6 °F 44% 30.03 in 10.0 mi WSW 8.1 mph - N/A   Clear
12:15 PM 78.8 °F - 53.6 °F 42% 30.02 in 10.0 mi WSW 8.1 mph - N/A   Clear
12:35 PM 78.8 °F - 55.4 °F 44% 30.02 in 10.0 mi SW 8.1 mph - N/A   Clear
12:55 PM 78.8 °F - 55.4 °F 44% 30.02 in 10.0 mi WSW 8.1 mph - N/A   Clear
1:15 PM 78.8 °F - 55.4 °F 44% 30.02 in 10.0 mi SW 9.2 mph - N/A   Clear
1:36 PM 78.8 °F - 55.4 °F 44% 30.01 in 10.0 mi SSW 8.1 mph - N/A   Clear
1:55 PM 78.8 °F - 53.6 °F 42% 30.01 in 10.0 mi South 6.9 mph - N/A   Clear
2:15 PM 80.6 °F 80.3 °F 53.6 °F 39% 30.01 in 10.0 mi WSW 6.9 mph - N/A   Clear
2:35 PM 80.6 °F - 51.8 °F 37% 30.01 in 10.0 mi SW 9.2 mph - N/A   Clear
2:55 PM 80.6 °F 80.3 °F 53.6 °F 39% 30.01 in 10.0 mi WSW 8.1 mph - N/A   Clear
3:15 PM 80.6 °F 80.3 °F 53.6 °F 39% 30.00 in 10.0 mi SSW 5.8 mph - N/A   Clear
3:35 PM 80.6 °F 80.3 °F 53.6 °F 39% 30.00 in 10.0 mi SW 9.2 mph 16.1 mph N/A   Clear
3:55 PM 80.6 °F - 51.8 °F 37% 30.00 in 10.0 mi SW 6.9 mph - N/A   Clear
4:15 PM 80.6 °F 80.3 °F 53.6 °F 39% 30.00 in 10.0 mi WSW 6.9 mph - N/A   Clear
4:35 PM 80.6 °F 80.3 °F 53.6 °F 39% 29.99 in 10.0 mi SSW 8.1 mph - N/A   Clear
4:55 PM 80.6 °F 80.5 °F 55.4 °F 42% 29.99 in 10.0 mi South 6.9 mph - N/A   Clear
5:15 PM 80.6 °F 80.5 °F 55.4 °F 42% 29.98 in 10.0 mi South 6.9 mph - N/A   Clear
5:35 PM 80.6 °F 80.5 °F 55.4 °F 42% 29.98 in 10.0 mi South 4.6 mph - N/A   Clear
5:55 PM 80.6 °F 80.5 °F 55.4 °F 42% 29.98 in 10.0 mi SSW 5.8 mph - N/A   Clear
6:15 PM 78.8 °F - 57.2 °F 47% 29.98 in 10.0 mi SE 4.6 mph - N/A   Clear
6:35 PM 78.8 °F - 57.2 °F 47% 29.98 in 10.0 mi South 4.6 mph - N/A   Clear
6:55 PM 75.2 °F - 59.0 °F 57% 29.98 in 10.0 mi South 3.5 mph - N/A   Clear
7:15 PM 75.2 °F - 60.8 °F 61% 29.98 in 10.0 mi Calm Calm - N/A   Clear
7:35 PM 73.4 °F - 60.8 °F 65% 29.98 in 10.0 mi SSE 3.5 mph - N/A   Clear
7:55 PM 73.4 °F - 59.0 °F 61% 29.98 in 10.0 mi Calm Calm - N/A   Clear
8:15 PM 71.6 °F - 60.8 °F 69% 29.99 in 10.0 mi Calm Calm - N/A   Clear
8:35 PM 71.6 °F - 57.2 °F 60% 29.99 in 10.0 mi SSW 4.6 mph - N/A   Clear
8:55 PM 73.4 °F - 57.2 °F 57% 30.00 in 10.0 mi South 4.6 mph - N/A   Clear
9:15 PM 73.4 °F - 57.2 °F 57% 30.01 in 10.0 mi South 4.6 mph - N/A   Clear
9:35 PM 71.6 °F - 57.2 °F 60% 30.00 in 10.0 mi South 5.8 mph - N/A   Clear
9:55 PM 71.6 °F - 57.2 °F 60% 30.01 in 10.0 mi South 6.9 mph - N/A   Clear
10:15 PM 69.8 °F - 57.2 °F 64% 30.00 in 10.0 mi West 3.5 mph - N/A   Clear
10:35 PM 66.2 °F - 57.2 °F 73% 30.00 in 10.0 mi WNW 3.5 mph - N/A   Clear
10:55 PM 66.2 °F - 57.2 °F 73% 30.00 in 10.0 mi NNW 3.5 mph - N/A   Clear
11:15 PM 64.4 °F - 57.2 °F 77% 30.01 in 10.0 mi NW 3.5 mph - N/A   Clear
11:35 PM 64.4 °F - 57.2 °F 77% 30.00 in 10.0 mi NW 3.5 mph - N/A   Clear
11:55 PM 66.2 °F - 60.8 °F 83% 30.00 in 10.0 mi South 9.2 mph - N/A   Clear